Weather History for Eveleth, MN

Change the Weather History Date:

Wednesday, March 6, 2013

  Actual Average Record
Temperature  
Mean Temperature 12 °F -  
Max Temperature 23 °F 26 °F 51 °F (2005)
Min Temperature 0 °F 6 °F -16 °F (2003)
Degree Days  
Heating Degree Days 54    
Moisture  
Dew Point 8 °F    
Average Humidity 79    
Maximum Humidity 92    
Minimum Humidity 63    
Precipitation  
Precipitation 0.00 in - - ()
Sea Level Pressure  
Sea Level Pressure 30.31 in    
Wind  
Wind Speed 4 mph (NW)    
Max Wind Speed 10 mph    
Max Gust Speed 16 mph    
Visibility 8 miles    
Events      
Averages and records for this station are not official NWS values.
T = Trace of Precipitation, MM = Missing Value Source: NWS Daily Summary

Daily Weather History Graph

Daily Weather History Graph

Search for Another Location

Airport:

Trip Planner

Search our weather history database for the weather conditions in past years. The results will help you decide how hot, cold, wet, or windy it might be!

Date:

Astronomy

Mar. 06, 2013 Rise Set
Actual Time 6:40 AM CST 6:02 PM CST
Civil Twilight 6:09 AM CST 6:33 PM CST
Nautical Twilight 5:34 AM CST 7:09 PM CST
Astronomical Twilight 4:58 AM CST 7:45 PM CST
Moon 3:07 AM CST (3/6) 12:28 PM CST (3/6)
Length of Visible Light 12h 23m
Length of Day
11h 22m
Waning Crescent, 29% of the Moon is Illuminated
Mar 6
Waning Crescent
Mar 11
New
Mar 19
First Quarter
Mar 27
Full
Apr 2
Last Quarter

Hourly Weather History & Observations

Time (CST) Temp. Windchill Dew Point Humidity Pressure Visibility Wind Dir Wind Speed Gust Speed Precip Events Conditions
12:05 AM 17.6 °F 9.3 °F 14.0 °F 86% 30.28 in 7.0 mi NNW 5.8 mph - N/A   Overcast
12:25 AM 17.6 °F 12.3 °F 12.2 °F 79% 30.27 in 5.0 mi North 3.5 mph - N/A   Overcast
12:45 AM 17.6 °F 12.3 °F 12.2 °F 79% 30.28 in 5.0 mi North 3.5 mph - N/A   Mostly Cloudy
1:05 AM 17.6 °F 12.3 °F 12.2 °F 79% 30.28 in 10.0 mi North 3.5 mph - N/A   Overcast
1:25 AM 17.6 °F 12.3 °F 12.2 °F 79% 30.28 in 10.0 mi North 3.5 mph - N/A   Overcast
1:48 AM 17.6 °F - 12.2 °F 79% 30.29 in 10.0 mi Calm Calm - N/A   Scattered Clouds
2:05 AM 15.8 °F - 10.4 °F 79% 30.29 in 10.0 mi Calm Calm - N/A   Clear
2:25 AM 12.2 °F - 10.4 °F 92% 30.29 in 10.0 mi Calm Calm - N/A   Clear
2:45 AM 12.2 °F - 8.6 °F 85% 30.29 in 7.0 mi Calm Calm - N/A   Clear
3:05 AM 8.6 °F 0.1 °F 5.0 °F 85% 30.29 in 10.0 mi NW 4.6 mph - N/A   Clear
3:25 AM 12.2 °F 4.3 °F 8.6 °F 85% 30.30 in 10.0 mi WNW 4.6 mph - N/A   Scattered Clouds
3:45 AM 12.2 °F - 8.6 °F 85% 30.30 in 10.0 mi Calm Calm - N/A   Mostly Cloudy
4:05 AM 8.6 °F 2.0 °F 6.8 °F 92% 30.30 in 10.0 mi NW 3.5 mph - N/A   Scattered Clouds
4:25 AM 8.6 °F 2.0 °F 6.8 °F 92% 30.30 in 10.0 mi NW 3.5 mph - N/A   Clear
4:45 AM 12.2 °F 6.1 °F 8.6 °F 85% 30.30 in 10.0 mi NNW 3.5 mph - N/A   Clear
5:05 AM 8.6 °F 2.0 °F 6.8 °F 92% 30.30 in 10.0 mi NNW 3.5 mph - N/A   Clear
5:25 AM 8.6 °F 0.1 °F 5.0 °F 85% 30.31 in 10.0 mi NW 4.6 mph - N/A   Clear
5:45 AM 10.4 °F -0.4 °F 6.8 °F 85% 30.32 in 10.0 mi NNW 6.9 mph - N/A   Scattered Clouds
6:05 AM 8.6 °F -1.3 °F 5.0 °F 85% 30.32 in 7.0 mi NW 5.8 mph - N/A   Mostly Cloudy
6:26 AM 12.2 °F - 8.6 °F 85% 30.32 in 2.5 mi Calm Calm - N/A   Overcast
6:45 AM 10.4 °F - 8.6 °F 92% 30.33 in 2.0 mi Calm Calm - N/A   Overcast
7:05 AM 12.2 °F - 8.6 °F 85% 30.33 in 3.0 mi Calm Calm - N/A   Overcast
7:25 AM 12.2 °F - 8.6 °F 85% 30.34 in 1.0 mi Calm Calm - N/A   Overcast
7:45 AM 12.2 °F - 8.6 °F 85% 30.34 in 3.0 mi Calm Calm - N/A   Overcast
8:05 AM 12.2 °F - 8.6 °F 85% 30.34 in 2.5 mi Calm Calm - N/A   Overcast
8:45 AM 12.2 °F 2.9 °F 8.6 °F 85% 30.35 in 1.2 mi WNW 5.8 mph - N/A   Mostly Cloudy
9:05 AM 12.2 °F 2.9 °F 8.6 °F 85% 30.35 in 1.8 mi WNW 5.8 mph - N/A   Unknown
9:25 AM 12.2 °F 1.7 °F 10.4 °F 92% 30.35 in 2.5 mi North 6.9 mph - N/A   Mostly Cloudy
9:45 AM 14.0 °F 3.9 °F 10.4 °F 86% 30.35 in 2.0 mi WNW 6.9 mph - N/A   Overcast
10:05 AM 14.0 °F 5.1 °F 10.4 °F 86% 30.35 in 5.0 mi NW 5.8 mph - N/A   Mostly Cloudy
10:25 AM 14.0 °F 6.5 °F 10.4 °F 86% 30.35 in 1.8 mi West 4.6 mph - N/A   Overcast
10:45 AM 17.6 °F 8.2 °F 10.4 °F 73% 30.34 in 2.5 mi NW 6.9 mph - N/A   Overcast
11:05 AM 17.6 °F 5.7 °F 10.4 °F 73% 30.34 in 7.0 mi NNW 10.4 mph - N/A   Mostly Cloudy
11:25 AM 17.6 °F 7.3 °F 10.4 °F 73% 30.34 in 10.0 mi NNW 8.1 mph - N/A   Mostly Cloudy
11:45 AM 17.6 °F 6.4 °F 8.6 °F 68% 30.34 in 7.0 mi NW 9.2 mph - N/A   Mostly Cloudy
12:05 PM 19.4 °F 8.6 °F 12.2 °F 74% 30.33 in 7.0 mi NW 9.2 mph - N/A   Overcast
12:45 PM 19.4 °F 7.9 °F 10.4 °F 68% 30.33 in 10.0 mi NW 10.4 mph 16.1 mph N/A   Mostly Cloudy
1:05 PM 19.4 °F 9.5 °F 10.4 °F 68% 30.32 in 10.0 mi NW 8.1 mph - N/A   Scattered Clouds
1:32 PM 21.2 °F 10.9 °F 12.2 °F 68% 30.32 in 10.0 mi NNW 9.2 mph - N/A   Mostly Cloudy
1:50 PM 23.0 °F 13.9 °F 12.2 °F 63% 30.31 in 10.0 mi North 8.1 mph - N/A   Mostly Cloudy
2:05 PM 23.0 °F 14.7 °F 12.2 °F 63% 30.30 in 10.0 mi NNW 6.9 mph - N/A   Overcast
2:25 PM 23.0 °F 13.1 °F 12.2 °F 63% 30.30 in 10.0 mi North 9.2 mph - N/A   Mostly Cloudy
2:50 PM 23.0 °F 13.9 °F 12.2 °F 63% 30.30 in 10.0 mi NW 8.1 mph - N/A   Overcast
3:10 PM 23.0 °F 13.1 °F 12.2 °F 63% 30.30 in 10.0 mi NW 9.2 mph 16.1 mph N/A   Mostly Cloudy
3:25 PM 23.0 °F 13.9 °F 12.2 °F 63% 30.29 in 10.0 mi NW 8.1 mph - N/A   Scattered Clouds
4:05 PM 23.0 °F 13.9 °F 12.2 °F 63% 30.29 in 10.0 mi WNW 8.1 mph - N/A   Mostly Cloudy
4:25 PM 23.0 °F 13.9 °F 12.2 °F 63% 30.29 in 10.0 mi NW 8.1 mph - N/A   Mostly Cloudy
4:45 PM 23.0 °F 13.9 °F 12.2 °F 63% 30.29 in 7.0 mi NW 8.1 mph - N/A   Scattered Clouds
5:05 PM 23.0 °F 14.7 °F 12.2 °F 63% 30.30 in 10.0 mi NNW 6.9 mph - N/A   Scattered Clouds
5:25 PM 23.0 °F 15.8 °F 12.2 °F 63% 30.29 in 10.0 mi NW 5.8 mph - N/A   Scattered Clouds
5:45 PM 23.0 °F 17.0 °F 12.2 °F 63% 30.29 in 10.0 mi WNW 4.6 mph - N/A   Mostly Cloudy
6:05 PM 21.2 °F 16.4 °F 12.2 °F 68% 30.30 in 10.0 mi WNW 3.5 mph - N/A   Scattered Clouds
6:25 PM 19.4 °F 14.3 °F 12.2 °F 74% 30.30 in 10.0 mi NW 3.5 mph - N/A   Clear
6:45 PM 17.6 °F - 12.2 °F 79% 30.30 in 10.0 mi Calm Calm - N/A   Clear
7:05 PM 12.2 °F - 8.6 °F 85% 30.31 in 10.0 mi Calm Calm - N/A   Clear
7:25 PM 12.2 °F - 8.6 °F 85% 30.31 in 10.0 mi Calm Calm - N/A   Clear
7:45 PM 10.4 °F - 6.8 °F 85% 30.31 in 10.0 mi Calm Calm - N/A   Clear
8:25 PM 6.8 °F -0.1 °F 3.2 °F 85% 30.32 in 10.0 mi WNW 3.5 mph - N/A   Clear
8:45 PM 5.0 °F -4.1 °F 1.4 °F 85% 30.32 in 10.0 mi NW 4.6 mph - N/A   Clear
9:05 PM 5.0 °F - -0.4 °F 78% 30.32 in 10.0 mi Calm Calm - N/A   Clear
9:25 PM 3.2 °F - -0.4 °F 85% 30.32 in 10.0 mi Calm Calm - N/A   Clear
9:45 PM 3.2 °F - -2.2 °F 78% 30.32 in 10.0 mi Calm Calm - N/A   Clear
10:05 PM 1.4 °F - -2.2 °F 85% 30.32 in 10.0 mi Calm Calm - N/A   Clear
10:25 PM 3.2 °F - -0.4 °F 85% 30.33 in 10.0 mi Calm Calm - N/A   Clear
10:45 PM -0.4 °F - -5.8 °F 78% 30.32 in 10.0 mi Calm Calm - N/A   Clear
11:05 PM -0.4 °F - -5.8 °F 78% 30.32 in 10.0 mi Calm Calm - N/A   Clear
11:25 PM -0.4 °F - -5.8 °F 78% 30.32 in 10.0 mi Calm Calm - N/A   Clear
11:45 PM -0.4 °F - -4.0 °F 85% 30.32 in 10.0 mi Calm Calm - N/A   Mostly Cloudy